Dewpoint
-32 -33 -33 -34 -35 -35 -35 -34 -34 -31 -29 -27 -22 -18 -10 -8 -7 -5 -3 -2 -1 -2 -2 -2 -2 1 -1
-33 -33 -33 -34 -34 -34 -32 -31 -29 -25 -23 -22 -17 -14 -9 -10 -6 -6 -3 -3 -2 -2 -3 -3 -2 -1 1
-31 -31 -32 -32 -33 -31 -27 -21 -21 -18 -14 -12 -15 -10 -9 -8 -7 -5 -4 -3 -2 -2 -3 -3 -2 -2 -1
-27 -30 -28 -26 -26 -22 -19 -15 -17 -13 -7 -11 -11 -9 -9 -7 -5 -3 -3 -2 -2 -3 -4 -4 -4 -3 -2
-32 -31 -28 -26 -20 -18 -16 -13 -14 -8 -7 -9 -9 -9 -9 -9 -5 -3 -2 -3 -3 -5 -5 -4 -4 -4 -4
-31 -28 -28 -23 -18 -16 -12 -8 -7 -8 -7 -10 -9 -10 -9 -8 -4 -3 -3 -3 -4 -4 -5 -5 -5 -6 -5
-31 -28 -25 -20 -17 -15 -11 -7 -7 -7 -7 -10 -9 -9 -9 -7 -5 -4 -4 -4 -4 -5 -5 -6 -6 -6 -6
-29 -27 -24 -20 -15 -11 -9 -8 -9 -9 -8 -8 -9 -9 -9 -6 -6 -5 -4 -5 -5 -6 -6 -10 -13 -9 -6
-29 -26 -22 -18 -13 -10 -9 -8 -7 -9 -7 -8 -8 -8 -9 -8 -7 -6 -5 -5 -5 -6 -6 -9 -16 -17 -13
-28 -26 -22 -17 -12 -10 -9 -8 -7 -8 -8 -8 -8 -8 -8 -8 -7 -6 -6 -5 -6 -6 -6 -8 -15 -19 -19
-27 -25 -19 -14 -11 -10 -9 -9 -8 -8 -8 -8 -8 -8 -8 -8 -7 -6 -7 -6 -6 -6 -6 -9 -13 -18 -20
-25 -20 -15 -12 -11 -10 -10 -9 -9 -8 -8 -8 -8 -8 -8 -7 -7 -6 -6 -6 -6 -6 -7 -8 -12 -16 -19
-22 -17 -14 -12 -11 -10 -10 -10 -10 -9 -9 -8 -8 -8 -7 -7 -7 -6 -6 -6 -6 -7 -7 -8 -12 -16 -18
-19 -16 -14 -12 -11 -10 -10 -10 -9 -10 -8 -8 -8 -7 -7 -7 -7 -6 -6 -6 -6 -7 -7 -8 -10 -11 -17
-18 -15 -13 -12 -11 -10 -10 -9 -8 -8 -8 -9 -8 -8 -7 -7 -7 -6 -6 -7 -6 -7 -7 -8 -9 -9 -15
-18 -14 -12 -11 -11 -10 -10 -9 -9 -9 -9 -9 -9 -8 -8 -7 -7 -7 -7 -7 -6 -7 -7 -8 -8 -9 -13
-19 -13 -12 -11 -11 -10 -10 -9 -9 -9 -9 -9 -9 -9 -9 -8 -8 -7 -7 -7 -7 -7 -7 -8 -9 -9 -11
Wind_Speed
22 23 25 28 30 33 35 36 39 37 38 36 36 35 33 34 36 37 34 33 34 38 42 43 52 58 46
21 23 26 28 31 34 36 37 38 38 33 33 37 32 32 34 34 34 28 29 37 34 42 46 45 48 55
22 23 25 28 33 34 36 39 39 39 32 31 34 30 32 33 32 31 26 27 29 28 37 40 38 41 42
20 23 25 28 31 35 39 37 39 27 26 35 32 29 31 30 28 31 27 23 18 28 36 36 35 37 37
19 22 25 28 31 34 36 38 38 23 33 33 33 31 31 26 25 28 22 18 22 31 37 34 31 33 35
18 20 23 26 29 32 33 34 32 31 32 33 30 31 31 23 21 17 22 22 26 32 33 29 30 31 32
17 19 22 25 28 30 29 28 30 32 29 32 30 32 29 17 20 15 18 22 26 28 29 24 26 28 30
15 18 20 23 24 26 27 25 28 28 23 30 34 34 28 13 23 16 17 21 26 28 24 23 24 23 27
15 16 17 19 21 25 26 27 29 30 18 30 35 36 28 13 24 19 13 17 23 24 23 21 22 20 21
13 14 15 17 19 21 23 23 24 26 22 31 31 29 23 14 22 18 14 16 19 18 21 20 21 19 19
14 15 15 17 17 18 18 19 20 20 22 22 27 25 21 26 22 15 16 14 17 19 20 19 20 19 19
14 15 16 17 17 17 17 17 17 19 19 16 21 21 21 23 17 16 14 12 14 17 19 17 16 16 17
13 14 16 18 19 19 19 18 18 18 16 18 19 19 16 16 17 15 15 13 12 14 16 16 16 15 14
12 14 16 18 20 20 21 20 21 21 19 18 17 15 16 13 14 13 11 9 11 11 13 13 12 13 13
12 14 16 18 20 20 20 19 20 22 22 20 15 14 13 13 13 11 9 8 8 8 10 10 11 12 11
12 13 16 18 21 20 19 17 19 20 21 21 18 15 10 10 9 13 9 8 7 7 9 8 10 10 10
11 13 15 18 20 20 19 18 18 19 20 19 17 16 14 11 11 9 9 8 8 8 8 9 10 9 8
Wind_Direction
324 327 330 332 334 335 337 339 341 342 343 344 344 339 338 338 336 339 348 356 354 342 344 344 350 4 348
326 330 333 335 335 336 339 340 343 346 343 343 344 341 344 339 339 340 345 350 354 352 349 354 359 15 24
326 331 335 336 336 339 341 341 345 344 342 340 345 348 348 345 344 345 348 347 355 355 356 1 360 14 26
326 333 336 337 338 339 338 340 342 344 336 339 353 354 353 351 355 359 359 357 2 353 2 5 13 19 22
331 333 337 339 340 336 335 337 342 340 335 347 351 355 357 354 6 17 15 15 356 358 5 9 19 26 29
333 334 337 336 332 336 335 335 329 341 340 344 351 356 357 355 3 13 15 11 1 0 2 18 25 28 34
334 337 333 333 331 333 335 328 326 331 338 338 352 354 358 357 3 360 18 2 1 4 5 18 28 33 37
332 335 333 330 331 331 329 324 329 340 347 342 350 350 357 5 2 356 9 7 359 2 13 22 21 31 40
333 332 331 333 333 330 335 333 336 344 356 343 344 341 353 6 360 354 347 357 2 10 10 22 19 25 37
330 330 333 337 336 334 333 333 338 340 343 340 337 345 340 339 353 356 352 356 3 7 4 18 15 23 29
333 336 339 339 339 336 332 330 332 327 338 330 326 331 326 323 343 353 349 352 0 2 2 14 15 21 27
335 337 338 339 341 337 334 333 335 331 331 324 318 321 319 319 326 332 334 337 347 356 3 9 12 22 28
333 334 339 340 342 341 342 338 339 336 339 329 321 314 312 313 313 328 325 321 325 346 356 3 12 19 28
332 334 339 342 344 343 341 341 339 343 346 340 332 317 309 313 318 318 313 302 309 331 348 1 3 11 21
329 337 339 342 343 345 343 341 341 340 343 347 340 320 311 314 321 328 320 304 298 315 337 354 358 7 21
326 333 338 342 342 343 340 342 337 340 341 343 341 336 329 331 325 332 323 297 296 304 324 344 351 3 15
324 331 338 339 341 340 340 337 335 341 336 339 339 337 335 321 308 324 324 296 289 288 307 323 339 354 3
Height
1555 1552 1549 1544 1540 1536 1531 1526 1521 1515 1508 1502 1496 1490 1483 1476 1469 1462 1455 1447 1440 1432 1421 1410 1397 1378 1358
1552 1549 1545 1540 1536 1531 1527 1523 1517 1510 1505 1500 1494 1487 1481 1474 1467 1461 1456 1449 1441 1432 1423 1412 1400 1383 1366
1547 1545 1541 1536 1531 1527 1523 1518 1513 1508 1503 1498 1492 1486 1480 1473 1465 1460 1456 1450 1443 1434 1425 1414 1404 1393 1380
1543 1540 1537 1533 1528 1522 1517 1515 1509 1504 1501 1496 1489 1484 1478 1472 1466 1460 1454 1449 1444 1437 1428 1419 1410 1401 1390
1540 1537 1533 1528 1524 1521 1516 1510 1506 1504 1498 1491 1485 1481 1475 1469 1464 1461 1455 1451 1445 1439 1431 1423 1416 1408 1400
1537 1533 1530 1526 1523 1519 1514 1508 1501 1500 1494 1487 1484 1479 1475 1469 1466 1462 1457 1452 1447 1441 1435 1429 1422 1415 1408
1534 1531 1528 1524 1520 1517 1513 1510 1505 1498 1494 1486 1483 1478 1474 1470 1467 1464 1458 1454 1450 1443 1437 1432 1427 1422 1416
1532 1529 1526 1523 1518 1514 1510 1507 1502 1497 1492 1484 1481 1477 1475 1471 1468 1465 1460 1456 1451 1445 1441 1437 1431 1426 1421
1529 1526 1524 1520 1516 1510 1506 1502 1496 1494 1490 1486 1482 1476 1473 1471 1469 1465 1461 1458 1453 1448 1444 1441 1436 1431 1426
1526 1524 1521 1518 1515 1510 1504 1501 1496 1490 1489 1484 1481 1477 1471 1469 1468 1465 1461 1459 1456 1452 1448 1444 1439 1435 1431
1521 1520 1517 1515 1512 1509 1504 1499 1494 1492 1488 1485 1480 1478 1476 1469 1465 1465 1461 1459 1457 1454 1450 1447 1444 1439 1435
1517 1516 1514 1511 1509 1506 1502 1499 1494 1490 1486 1484 1480 1477 1474 1470 1465 1463 1462 1460 1458 1456 1452 1450 1446 1443 1440
1514 1514 1512 1509 1505 1501 1498 1495 1491 1488 1485 1482 1478 1475 1473 1469 1465 1462 1461 1460 1459 1457 1454 1451 1448 1445 1443
1512 1510 1508 1506 1503 1498 1493 1491 1487 1485 1483 1480 1475 1473 1470 1468 1465 1462 1460 1459 1459 1457 1455 1453 1450 1448 1445
1508 1506 1504 1502 1500 1495 1490 1488 1486 1482 1478 1476 1474 1471 1469 1467 1464 1461 1458 1458 1458 1457 1456 1454 1451 1449 1447
1505 1503 1500 1498 1497 1494 1489 1486 1483 1480 1476 1474 1471 1468 1466 1466 1464 1460 1458 1457 1457 1457 1455 1454 1452 1451 1449
1503 1501 1497 1495 1493 1490 1488 1485 1482 1478 1475 1472 1471 1469 1465 1464 1463 1460 1458 1456 1456 1456 1455 1454 1453 1452 1451